Weather History for EINN - July, 2014

Change the Weather History Date:

Wednesday, July 23, 2014

  Actual Average Record
Temperature  
Mean Temperature 70 °F -  
Max Temperature 77 °F 67 °F 77 °F (2014)
Min Temperature 63 °F 53 °F 50 °F (2007)
Cooling Degree Days 5    
Growing Degree Days 20 (Base 50)    
Moisture  
Dew Point 61 °F    
Average Humidity 79    
Maximum Humidity 94    
Minimum Humidity 51    
Precipitation  
Precipitation 0.01 in 0.10 in - ()
Sea Level Pressure  
Sea Level Pressure 30.13 in    
Wind  
Wind Speed 5 mph ()    
Max Wind Speed 13 mph    
Max Gust Speed -    
Visibility 8.8 miles    
Events Rain    
Averages and records for this station are not official NWS values.
T = Trace of Precipitation, MM = Missing Value Source: Averaged Metar Reports

Daily Weather History Graph

Daily Weather History Graph

Search for Another Location

Airport or City:

Trip Planner

Search our weather history database for the weather conditions in past years. The results will help you decide how hot, cold, wet, or windy it might be!

Date:

Astronomy

Jul. 23, 2014 Rise Set
Actual Time 5:40 AM IST 9:42 PM IST
Civil Twilight 4:55 AM IST 10:27 PM IST
Nautical Twilight 3:51 AM IST 11:31 PM IST
Astronomical Twilight 2:14 AM IST 1:09 AM IST
Moon 2:53 AM IST (7/23) 6:57 PM IST (7/23)
Length of Visible Light 17h 31m
Length of Day
16h 02m
Waning Crescent, 11% of the Moon is Illuminated
Jul 23
Waning Crescent
Jul 26
New
Aug 4
First Quarter
Aug 10
Full
Aug 17
Last Quarter

Hourly Weather History & Observations

Time (IST) Temp. Dew Point Humidity Pressure Visibility Wind Dir Wind Speed Gust Speed Precip Events Conditions
12:00 AM 67 °F 61 °F 75% 30.21 in 16 mi SE 4.5 mph - -   Mostly Cloudy
12:00 AM 68.0 °F 60.8 °F 78% 30.21 in - SE 4.6 mph - N/A   Clear
12:30 AM 66.2 °F 60.8 °F 83% 30.18 in 6.2 mi SSE 5.8 mph - N/A Rain Light Rain
1:00 AM 66 °F 62 °F 85% 30.21 in 12 mi SE 4.5 mph - - Rain Light Rain
1:00 AM 66.2 °F 62.6 °F 88% 30.18 in 6.2 mi SE 4.6 mph - N/A Rain Light Rain
1:30 AM 66.2 °F 62.6 °F 88% 30.18 in 6.2 mi SE 5.8 mph - N/A   Mostly Cloudy
2:00 AM 65 °F 62 °F 86% 30.20 in 16 mi SE 4.5 mph - - Rain Light Rain
2:00 AM 64.4 °F 62.6 °F 94% 30.18 in - SE 4.6 mph - N/A   Clear
2:30 AM 64.4 °F 62.6 °F 94% 30.18 in 6.2 mi South 6.9 mph - N/A   Mostly Cloudy
3:00 AM 64 °F 62 °F 89% 30.19 in 16 mi SE 6.7 mph - -   Scattered Clouds
3:00 AM 64.4 °F 60.8 °F 88% 30.18 in 6.2 mi SE 5.8 mph - N/A   Mostly Cloudy
3:30 AM 64.4 °F 60.8 °F 88% 30.18 in 6.2 mi SE 3.5 mph - N/A   Mostly Cloudy
4:00 AM 64 °F 61 °F 87% 30.18 in 16 mi SSE 4.5 mph - -   Partly Cloudy
4:00 AM 64.4 °F 60.8 °F 88% 30.18 in - SSE 4.6 mph - N/A   Clear
4:30 AM 64.4 °F 60.8 °F 88% 30.15 in 6.2 mi SSE 5.8 mph - N/A   Mostly Cloudy
5:00 AM 64 °F 61 °F 87% 30.17 in 16 mi ESE 4.5 mph - -   Mostly Cloudy
5:00 AM 64.4 °F 60.8 °F 88% 30.15 in 6.2 mi ESE 4.6 mph - N/A   Mostly Cloudy
5:30 AM 64.4 °F 60.8 °F 88% 30.15 in 6.2 mi SE 5.8 mph - N/A   Mostly Cloudy
6:00 AM 64 °F 61 °F 87% 30.18 in 12 mi ESE 4.5 mph - -   Mostly Cloudy
6:00 AM 64.4 °F 60.8 °F 88% 30.15 in 6.2 mi ESE 4.6 mph - N/A   Mostly Cloudy
6:30 AM 64.4 °F 60.8 °F 88% 30.15 in 6.2 mi ESE 4.6 mph - N/A   Mostly Cloudy
7:00 AM 64 °F 61 °F 86% 30.17 in 16 mi SE 6.7 mph - -   Partly Cloudy
7:00 AM 64.4 °F 60.8 °F 88% 30.15 in 6.2 mi SE 5.8 mph - N/A   Mostly Cloudy
7:30 AM 64.4 °F 60.8 °F 88% 30.15 in 6.2 mi SE 4.6 mph - N/A   Mostly Cloudy
8:00 AM 65 °F 61 °F 82% 30.17 in 16 mi SE 4.5 mph - -   Mostly Cloudy
8:00 AM 64.4 °F 60.8 °F 88% 30.15 in 6.2 mi SE 4.6 mph - N/A   Mostly Cloudy
8:30 AM 64.4 °F 60.8 °F 88% 30.15 in 6.2 mi ESE 4.6 mph - N/A   Mostly Cloudy
9:00 AM 65 °F 62 °F 85% 30.17 in 16 mi ESE 6.7 mph - -   Mostly Cloudy
9:00 AM 66.2 °F 60.8 °F 83% 30.15 in 6.2 mi ESE 5.8 mph - N/A   Mostly Cloudy
9:30 AM 66.2 °F 60.8 °F 83% 30.15 in 6.2 mi ESE 4.6 mph - N/A   Mostly Cloudy
10:00 AM 66 °F 62 °F 83% 30.17 in 16 mi SE 4.5 mph - -   Mostly Cloudy
10:00 AM 66.2 °F 62.6 °F 88% 30.15 in 6.2 mi SE 4.6 mph - N/A   Mostly Cloudy
10:30 AM 66.2 °F 62.6 °F 88% 30.15 in 6.2 mi South 4.6 mph - N/A   Mostly Cloudy
11:00 AM 68 °F 62 °F 76% 30.16 in 19 mi SE 6.7 mph - -   Overcast
11:00 AM 68.0 °F 62.6 °F 83% 30.15 in 6.2 mi SE 5.8 mph - N/A   Mostly Cloudy
11:30 AM 68.0 °F 62.6 °F 83% 30.15 in 6.2 mi ENE 3.5 mph - N/A   Mostly Cloudy
12:00 PM 71 °F 63 °F 68% 30.15 in 25 mi South 4.5 mph - -   Mostly Cloudy
12:00 PM 71.6 °F 62.6 °F 73% 30.15 in 6.2 mi South 3.5 mph - N/A   Mostly Cloudy
12:30 PM 71.6 °F 62.6 °F 73% 30.12 in 6.2 mi South 5.8 mph - N/A   Mostly Cloudy
1:00 PM 72 °F 61 °F 60% 30.14 in 25 mi SE 4.5 mph - -   Mostly Cloudy
1:00 PM 71.6 °F 60.8 °F 69% 30.12 in 6.2 mi SE 3.5 mph - N/A   Mostly Cloudy
1:30 PM 71.6 °F 62.6 °F 73% 30.12 in 6.2 mi East 4.6 mph - N/A   Mostly Cloudy
2:00 PM 73 °F 62 °F 61% 30.13 in 25 mi East 6.7 mph - -   Mostly Cloudy
2:00 PM 73.4 °F 62.6 °F 69% 30.12 in 6.2 mi East 5.8 mph - N/A   Mostly Cloudy
2:30 PM 73.4 °F 62.6 °F 69% 30.09 in 6.2 mi East 10.4 mph - N/A   Mostly Cloudy
3:00 PM 73 °F 62 °F 61% 30.12 in 31 mi East 8.9 mph - -   Mostly Cloudy
3:00 PM 73.4 °F 62.6 °F 69% 30.09 in 6.2 mi East 8.1 mph - N/A   Mostly Cloudy
3:30 PM 73.4 °F 62.6 °F 69% 30.09 in 6.2 mi East 6.9 mph - N/A   Mostly Cloudy
4:00 PM 74 °F 61 °F 56% 30.11 in 25 mi ESE 2.2 mph - -   Scattered Clouds
4:00 PM 73.4 °F 60.8 °F 65% 30.09 in 6.2 mi Variable 2.3 mph - N/A   Mostly Cloudy
4:30 PM 75.2 °F 62.6 °F 65% 30.09 in 6.2 mi Variable 1.2 mph - N/A   Mostly Cloudy
5:00 PM 76 °F 61 °F 51% 30.10 in 25 mi NW 2.2 mph - -   Partly Cloudy
5:00 PM 77.0 °F 60.8 °F 57% 30.09 in 6.2 mi NW 1.2 mph - N/A   Mostly Cloudy
5:30 PM 77.0 °F 60.8 °F 57% 30.09 in 6.2 mi East 4.6 mph - N/A   Mostly Cloudy
6:00 PM 75 °F 61 °F 53% 30.09 in 25 mi East 4.5 mph - -   Mostly Cloudy
6:00 PM 75.2 °F 60.8 °F 61% 30.06 in 6.2 mi East 3.5 mph - N/A   Mostly Cloudy
6:30 PM 75.2 °F 62.6 °F 65% 30.06 in 6.2 mi WNW 9.2 mph - N/A   Mostly Cloudy
7:00 PM 70 °F 63 °F 73% 30.09 in 19 mi NW 13.4 mph - - Rain Light Rain Showers
7:00 PM 69.8 °F 62.6 °F 78% 30.09 in 6.2 mi NW 12.7 mph - N/A Rain Light Rain Showers
7:30 PM 68.0 °F 64.4 °F 88% 30.09 in 6.2 mi NW 9.2 mph - N/A Rain Light Rain Showers
8:00 PM 67 °F 63 °F 84% 30.09 in 12 mi WNW 8.9 mph - - Rain Light Rain Showers
8:00 PM 66.2 °F 62.6 °F 88% 30.06 in 6.2 mi WNW 8.1 mph - N/A Rain Light Rain Showers
8:30 PM 66.2 °F 62.6 °F 88% 30.09 in 6.2 mi NW 8.1 mph - N/A   Mostly Cloudy
9:00 PM 66 °F 61 °F 79% 30.11 in 16 mi WNW 8.9 mph - - Rain Light Rain Showers
9:00 PM 66.2 °F 60.8 °F 83% 30.09 in 6.2 mi WNW 8.1 mph - N/A   Mostly Cloudy
9:30 PM 66.2 °F 60.8 °F 83% 30.09 in 6.2 mi West 5.8 mph - N/A   Mostly Cloudy
10:00 PM 65 °F 59 °F 76% 30.12 in 16 mi WNW 8.9 mph - -   Partly Cloudy
10:00 PM 66.2 °F 59.0 °F 78% 30.09 in 6.2 mi WNW 9.2 mph - N/A   Scattered Clouds
10:30 PM 66.2 °F 59.0 °F 78% 30.09 in 6.2 mi WNW 2.3 mph - N/A   Scattered Clouds
11:00 PM 65 °F 58 °F 73% 30.12 in 16 mi NW 6.7 mph - -   Mostly Cloudy
11:00 PM 64.4 °F 59.0 °F 83% 30.09 in 6.2 mi NW 5.8 mph - N/A   Mostly Cloudy
11:30 PM 64.4 °F 59.0 °F 83% 30.09 in 6.2 mi WNW 2.3 mph - N/A   Scattered Clouds